QTR3027 KMIA-EGKK

Flight info

Callsign QTR3027
Flight time 7h 37m
Altitude 31000
Route FOLZZ3 SUMRS/M084F310 M204 LUNKR/M084F330 M204 SOORY DCT 42N050W 44N040W 46N030W 48N020W 48N015W DCT OMOKO DCT GUNSO DCT GAPLI/N0482F330 DCT SIDDI DCT DAWLY DCT ELRIP DCT OTMET
Aircraft B77W/H-SDE1E2E3FGHIJ2J3J4J5M1RWXY/LB1D1

Departure

Time 2026-05-05 08:48
Airport Miami International Airport (KMIA)

Arrival

Time 2026-05-05 16:25
Airport London Gatwick Airport (EGKK)
Time Latitude Longitude Altitude Speed Heading
2026-05-05 07:47 25.80577 -80.28129 26 ft 0 kts 177°
2026-05-05 08:35 25.80591 -80.28129 32 ft 4 kts 195°
2026-05-05 08:35 25.80609 -80.28114 24 ft 4 kts 251°
2026-05-05 08:36 25.80613 -80.28091 25 ft 1 kts 268°
2026-05-05 08:39 25.80612 -80.28109 26 ft 5 kts 268°
2026-05-05 08:39 25.80610 -80.28165 26 ft 8 kts 268°
2026-05-05 08:39 25.80601 -80.28228 26 ft 8 kts 249°
2026-05-05 08:40 25.80552 -80.28254 30 ft 9 kts 172°
2026-05-05 08:40 25.80497 -80.28268 30 ft 9 kts 225°
2026-05-05 08:40 25.80476 -80.28332 25 ft 9 kts 259°
2026-05-05 08:40 25.80473 -80.28405 23 ft 11 kts 268°
2026-05-05 08:41 25.80470 -80.28494 21 ft 12 kts 268°
2026-05-05 08:41 25.80467 -80.28583 25 ft 12 kts 267°
2026-05-05 08:41 25.80463 -80.28673 24 ft 12 kts 267°
2026-05-05 08:41 25.80459 -80.28762 23 ft 12 kts 267°
2026-05-05 08:42 25.80454 -80.28852 21 ft 12 kts 267°
2026-05-05 08:42 25.80451 -80.28940 20 ft 12 kts 267°
2026-05-05 08:42 25.80447 -80.29030 20 ft 12 kts 268°
2026-05-05 08:42 25.80445 -80.29120 22 ft 12 kts 268°
2026-05-05 08:43 25.80441 -80.29210 27 ft 12 kts 266°
2026-05-05 08:43 25.80436 -80.29299 27 ft 12 kts 267°
2026-05-05 08:43 25.80433 -80.29389 25 ft 12 kts 267°
2026-05-05 08:43 25.80429 -80.29479 22 ft 12 kts 267°
2026-05-05 08:44 25.80425 -80.29569 27 ft 12 kts 267°
2026-05-05 08:44 25.80421 -80.29659 25 ft 12 kts 267°
2026-05-05 08:44 25.80418 -80.29749 28 ft 12 kts 268°
2026-05-05 08:44 25.80415 -80.29839 27 ft 12 kts 268°
2026-05-05 08:45 25.80412 -80.29929 26 ft 12 kts 267°
2026-05-05 08:45 25.80407 -80.30018 26 ft 12 kts 267°
2026-05-05 08:45 25.80404 -80.30091 23 ft 8 kts 267°
2026-05-05 08:45 25.80390 -80.30128 26 ft 8 kts 226°
2026-05-05 08:46 25.80316 -80.30144 25 ft 8 kts 178°
2026-05-05 08:46 25.80276 -80.30143 24 ft 9 kts 179°
2026-05-05 08:46 25.80216 -80.30141 24 ft 9 kts 177°
2026-05-05 08:46 25.80152 -80.30137 23 ft 9 kts 177°
2026-05-05 08:47 25.80089 -80.30123 23 ft 9 kts 146°
2026-05-05 08:47 25.80075 -80.30058 19 ft 0 kts 88°
2026-05-05 08:48 25.80080 -80.29925 18 ft 51 kts 87°
2026-05-05 08:48 25.80110 -80.29187 29 ft 139 kts 88°
2026-05-05 08:48 25.80171 -80.27806 63 ft 213 kts 86°
2026-05-05 08:48 25.80244 -80.26126 1043 ft 220 kts 87°
2026-05-05 08:49 25.80191 -80.24430 2191 ft 224 kts 103°
2026-05-05 08:49 25.79504 -80.22888 2824 ft 223 kts 122°
2026-05-05 08:49 25.78670 -80.21424 3203 ft 232 kts 121°
2026-05-05 08:49 25.77813 -80.19869 3572 ft 240 kts 121°
2026-05-05 08:50 25.76932 -80.18258 4039 ft 245 kts 121°
2026-05-05 08:50 25.76074 -80.16588 4522 ft 253 kts 119°
2026-05-05 08:50 25.75218 -80.14842 4882 ft 261 kts 119°
2026-05-05 08:50 25.74371 -80.13055 5004 ft 265 kts 112°
2026-05-05 08:51 25.74135 -80.11090 5003 ft 256 kts 78°
2026-05-05 08:51 25.74842 -80.09312 5160 ft 255 kts 52°
2026-05-05 08:51 25.75983 -80.07771 5615 ft 261 kts 48°
2026-05-05 08:51 25.77194 -80.06235 6145 ft 268 kts 47°
2026-05-05 08:52 25.78430 -80.04687 6592 ft 275 kts 46°
2026-05-05 08:52 25.79721 -80.03071 7031 ft 285 kts 47°
2026-05-05 08:52 25.81063 -80.01388 7437 ft 296 kts 47°
2026-05-05 08:52 25.82441 -79.99653 7960 ft 302 kts 47°
2026-05-05 08:53 25.83842 -79.97883 8534 ft 308 kts 47°
2026-05-05 08:53 25.85264 -79.96082 9119 ft 313 kts 47°
2026-05-05 08:53 25.86709 -79.94249 9710 ft 318 kts 47°
2026-05-05 08:53 25.88179 -79.92382 10220 ft 324 kts 47°
2026-05-05 08:54 25.89700 -79.90451 10429 ft 343 kts 47°
2026-05-05 08:54 25.91322 -79.88391 10612 ft 364 kts 47°
2026-05-05 08:54 25.93041 -79.86204 10765 ft 385 kts 47°
2026-05-05 08:54 25.94841 -79.83913 11036 ft 401 kts 47°
2026-05-05 08:55 25.96695 -79.81547 11539 ft 409 kts 47°
2026-05-05 08:55 25.98581 -79.79138 12134 ft 414 kts 47°
2026-05-05 08:55 26.00482 -79.76710 12771 ft 418 kts 46°
2026-05-05 08:55 26.02368 -79.74300 13408 ft 422 kts 46°
2026-05-05 08:56 26.04308 -79.71820 14003 ft 426 kts 46°
2026-05-05 08:56 26.06262 -79.69323 14520 ft 430 kts 46°
2026-05-05 08:56 26.08239 -79.66794 15074 ft 434 kts 46°
2026-05-05 08:56 26.10228 -79.64250 15627 ft 438 kts 46°
2026-05-05 08:57 26.12161 -79.61604 16161 ft 444 kts 51°
2026-05-05 08:57 26.13969 -79.58786 16701 ft 448 kts 53°
2026-05-05 08:57 26.15737 -79.55894 17239 ft 453 kts 53°
2026-05-05 08:57 26.17516 -79.52979 17782 ft 457 kts 53°
2026-05-05 08:58 26.19324 -79.50057 18287 ft 461 kts 52°
2026-05-05 08:58 26.21171 -79.47114 18760 ft 465 kts 52°
2026-05-05 08:58 26.23018 -79.44195 19235 ft 467 kts 52°
2026-05-05 08:58 26.24901 -79.41227 19720 ft 471 kts 51°
2026-05-05 08:59 26.26801 -79.38229 20173 ft 474 kts 51°
2026-05-05 08:59 26.28713 -79.35216 20639 ft 477 kts 50°
2026-05-05 08:59 26.30797 -79.32346 21072 ft 477 kts 43°
2026-05-05 08:59 26.33104 -79.29675 21496 ft 478 kts 39°
2026-05-05 09:00 26.35513 -79.27093 21966 ft 480 kts 38°
2026-05-05 09:00 26.37947 -79.24535 22430 ft 483 kts 38°
2026-05-05 09:00 26.40358 -79.21981 22894 ft 486 kts 38°
2026-05-05 09:00 26.42798 -79.19350 23316 ft 489 kts 39°
2026-05-05 09:01 26.45235 -79.16680 23708 ft 492 kts 39°
2026-05-05 09:01 26.47673 -79.13972 24090 ft 494 kts 39°
2026-05-05 09:01 26.50106 -79.11248 24514 ft 495 kts 39°
2026-05-05 09:01 26.52535 -79.08517 24976 ft 494 kts 39°
2026-05-05 09:02 26.54937 -79.05812 25386 ft 496 kts 39°
2026-05-05 09:02 26.57343 -79.03105 25751 ft 498 kts 39°
2026-05-05 09:02 26.59809 -79.00332 26132 ft 499 kts 39°
2026-05-05 09:02 26.62290 -78.97542 26512 ft 501 kts 39°
2026-05-05 09:03 26.64736 -78.94790 26888 ft 502 kts 39°
2026-05-05 09:03 26.67196 -78.92021 27258 ft 503 kts 38°
2026-05-05 09:03 26.69661 -78.89246 27597 ft 505 kts 38°
2026-05-05 09:03 26.72162 -78.86429 27924 ft 507 kts 38°
2026-05-05 09:04 26.74632 -78.83645 28245 ft 509 kts 38°
2026-05-05 09:04 26.77118 -78.80840 28539 ft 511 kts 38°
2026-05-05 09:04 26.79615 -78.78021 28822 ft 512 kts 38°
2026-05-05 09:04 26.82141 -78.75167 29109 ft 514 kts 38°
2026-05-05 09:05 26.84652 -78.72328 29386 ft 516 kts 38°
2026-05-05 09:05 26.87201 -78.69443 29685 ft 516 kts 38°
2026-05-05 09:05 26.89691 -78.66622 30039 ft 515 kts 38°
2026-05-05 09:05 26.92227 -78.63746 30388 ft 514 kts 38°
2026-05-05 09:06 26.94721 -78.60916 30692 ft 513 kts 38°
2026-05-05 09:06 26.97222 -78.58078 30928 ft 514 kts 38°
2026-05-05 09:06 26.99744 -78.55219 30965 ft 517 kts 38°
2026-05-05 09:07 27.04813 -78.49459 31021 ft 514 kts 38°
2026-05-05 09:07 27.09811 -78.43768 31032 ft 513 kts 38°
2026-05-05 09:08 27.14808 -78.38077 31019 ft 514 kts 38°
2026-05-05 09:08 27.19830 -78.32349 31031 ft 515 kts 38°
2026-05-05 09:09 27.24872 -78.26589 31026 ft 516 kts 38°
2026-05-05 09:09 27.29909 -78.20826 31037 ft 518 kts 38°
2026-05-05 09:10 27.34960 -78.15039 31042 ft 519 kts 38°
2026-05-05 09:10 27.40023 -78.09230 31041 ft 520 kts 38°
2026-05-05 09:11 27.45098 -78.03399 31037 ft 521 kts 39°
2026-05-05 09:11 27.50162 -77.97572 31040 ft 522 kts 39°
2026-05-05 09:12 27.55259 -77.91700 31038 ft 522 kts 39°
2026-05-05 09:12 27.60312 -77.85870 31035 ft 523 kts 39°
2026-05-05 09:13 27.65386 -77.80008 31036 ft 523 kts 39°
2026-05-05 09:13 27.70497 -77.74094 31037 ft 523 kts 39°
2026-05-05 09:14 27.75537 -77.68254 31050 ft 523 kts 39°
2026-05-05 09:14 27.80649 -77.62323 31036 ft 524 kts 39°
2026-05-05 09:15 27.85719 -77.56432 31040 ft 524 kts 39°
2026-05-05 09:15 27.90811 -77.50507 31046 ft 525 kts 40°
2026-05-05 09:16 27.95896 -77.44581 31044 ft 525 kts 40°
2026-05-05 09:16 28.00952 -77.38680 31051 ft 525 kts 40°
2026-05-05 09:17 28.06059 -77.32713 31046 ft 525 kts 40°
2026-05-05 09:17 28.11136 -77.26770 31048 ft 525 kts 40°
2026-05-05 09:18 28.16205 -77.20829 31049 ft 525 kts 40°
2026-05-05 09:18 28.21260 -77.14895 31046 ft 525 kts 40°
2026-05-05 09:19 28.26353 -77.08909 31049 ft 525 kts 40°
2026-05-05 09:19 28.31414 -77.02950 31050 ft 525 kts 40°
2026-05-05 09:20 28.36479 -76.96979 31049 ft 526 kts 40°
2026-05-05 09:20 28.41533 -76.91011 31057 ft 526 kts 40°
2026-05-05 09:21 28.46634 -76.84980 31050 ft 526 kts 41°
2026-05-05 09:21 28.51670 -76.79017 31054 ft 526 kts 41°
2026-05-05 09:22 28.56769 -76.72969 31055 ft 527 kts 41°
2026-05-05 09:22 28.61841 -76.66944 31054 ft 527 kts 41°
2026-05-05 09:23 28.66880 -76.60949 31058 ft 527 kts 41°
2026-05-05 09:23 28.71939 -76.54862 31055 ft 529 kts 44°
2026-05-05 09:24 28.76713 -76.48490 31057 ft 531 kts 45°
2026-05-05 09:24 28.81460 -76.41979 31059 ft 531 kts 45°
2026-05-05 09:25 28.86183 -76.35517 31065 ft 532 kts 45°
2026-05-05 09:25 28.90923 -76.29065 31069 ft 532 kts 45°
2026-05-05 09:26 28.95679 -76.22598 31073 ft 533 kts 45°
2026-05-05 09:26 29.00455 -76.16092 31075 ft 533 kts 45°
2026-05-05 09:27 29.05211 -76.09600 31063 ft 533 kts 45°
2026-05-05 09:27 29.09981 -76.03078 31063 ft 534 kts 45°
2026-05-05 09:28 29.14712 -75.96598 31068 ft 534 kts 45°
2026-05-05 09:28 29.19505 -75.90023 31069 ft 535 kts 46°
2026-05-05 09:29 29.24254 -75.83498 31076 ft 535 kts 46°
2026-05-05 09:29 29.29022 -75.76937 31073 ft 536 kts 46°
2026-05-05 09:30 29.33771 -75.70390 31073 ft 536 kts 46°
2026-05-05 09:30 29.38530 -75.63821 31077 ft 536 kts 46°
2026-05-05 09:31 29.43302 -75.57222 31080 ft 536 kts 46°
2026-05-05 09:31 29.48065 -75.50625 31080 ft 537 kts 46°
2026-05-05 09:32 29.52827 -75.44019 31082 ft 537 kts 46°
2026-05-05 09:32 29.56800 -75.38499 31084 ft 537 kts 46°
2026-05-05 09:33 29.61564 -75.31870 31089 ft 538 kts 46°
2026-05-05 09:33 29.66331 -75.25226 31089 ft 538 kts 46°
2026-05-05 09:34 29.71072 -75.18608 31094 ft 539 kts 46°
2026-05-05 09:34 29.75836 -75.11945 31092 ft 540 kts 46°
2026-05-05 09:35 29.80613 -75.05256 31092 ft 540 kts 46°
2026-05-05 09:35 29.87750 -74.95238 31096 ft 541 kts 46°
2026-05-05 09:36 29.92541 -74.88500 31098 ft 541 kts 47°
2026-05-05 09:36 29.97271 -74.81835 31101 ft 541 kts 47°
2026-05-05 09:37 30.02036 -74.75111 31101 ft 541 kts 47°
2026-05-05 09:37 30.06787 -74.68396 31102 ft 541 kts 47°
2026-05-05 09:38 30.11569 -74.61624 31108 ft 541 kts 47°
2026-05-05 09:38 30.16324 -74.54880 31111 ft 541 kts 47°
2026-05-05 09:39 30.21051 -74.48164 31094 ft 541 kts 47°
2026-05-05 09:39 30.25802 -74.41402 31107 ft 541 kts 47°
2026-05-05 09:40 30.30549 -74.34636 31112 ft 541 kts 47°
2026-05-05 09:40 30.35307 -74.27841 31111 ft 541 kts 47°
2026-05-05 09:41 30.40046 -74.21062 31116 ft 541 kts 48°
2026-05-05 09:41 30.44760 -74.14307 31116 ft 541 kts 48°
2026-05-05 09:42 30.49499 -74.07504 31120 ft 541 kts 48°
2026-05-05 09:42 30.54198 -74.00747 31121 ft 541 kts 48°
2026-05-05 09:43 30.58926 -73.93938 31119 ft 541 kts 48°
2026-05-05 09:43 30.63637 -73.87137 31124 ft 541 kts 48°
2026-05-05 09:44 30.68363 -73.80301 31125 ft 541 kts 49°
2026-05-05 09:44 30.73086 -73.73456 31124 ft 542 kts 49°
2026-05-05 09:45 30.77774 -73.66650 31126 ft 542 kts 49°
2026-05-05 09:45 30.82500 -73.59777 31134 ft 542 kts 49°
2026-05-05 09:46 30.87171 -73.52972 31132 ft 542 kts 49°
2026-05-05 09:46 30.91875 -73.46107 31134 ft 542 kts 49°
2026-05-05 09:47 30.96581 -73.39227 31138 ft 542 kts 49°
2026-05-05 09:47 31.01278 -73.32348 31143 ft 542 kts 49°
2026-05-05 09:48 31.05971 -73.25463 31138 ft 541 kts 49°
2026-05-05 09:48 31.10625 -73.18623 31140 ft 541 kts 49°
2026-05-05 09:49 31.15309 -73.11728 31145 ft 541 kts 50°
2026-05-05 09:49 31.19999 -73.04810 31143 ft 541 kts 50°
2026-05-05 09:50 31.24652 -72.97936 31148 ft 541 kts 50°
2026-05-05 09:50 31.29318 -72.91029 31151 ft 541 kts 50°
2026-05-05 09:51 31.33988 -72.84105 31152 ft 542 kts 50°
2026-05-05 09:51 31.38627 -72.77213 31156 ft 542 kts 50°
2026-05-05 09:52 31.43305 -72.70252 31155 ft 541 kts 50°
2026-05-05 09:52 31.47929 -72.63359 31158 ft 541 kts 50°
2026-05-05 09:53 31.52576 -72.56419 31159 ft 541 kts 50°
2026-05-05 09:53 31.57219 -72.49472 31160 ft 541 kts 50°
2026-05-05 09:54 31.61855 -72.42524 31165 ft 540 kts 50°
2026-05-05 09:54 31.66490 -72.35564 31165 ft 540 kts 50°
2026-05-05 09:55 31.71089 -72.28646 31167 ft 540 kts 50°
2026-05-05 09:55 31.75711 -72.21681 31166 ft 540 kts 51°
2026-05-05 09:56 31.80331 -72.14705 31166 ft 540 kts 51°
2026-05-05 09:56 31.84948 -72.07722 31172 ft 540 kts 51°
2026-05-05 09:57 31.89552 -72.00745 31176 ft 540 kts 51°
2026-05-05 09:57 31.94157 -71.93754 31173 ft 540 kts 51°
2026-05-05 09:58 31.98756 -71.86759 31181 ft 540 kts 51°
2026-05-05 09:58 32.03341 -71.79772 31177 ft 540 kts 51°
2026-05-05 09:59 32.07913 -71.72795 31181 ft 540 kts 51°
2026-05-05 09:59 32.12520 -71.65755 31180 ft 540 kts 51°
2026-05-05 10:00 32.17086 -71.58763 31180 ft 540 kts 51°
2026-05-05 10:00 32.21688 -71.51700 31187 ft 540 kts 51°
2026-05-05 10:01 32.26236 -71.44709 31178 ft 540 kts 51°
2026-05-05 10:01 32.30811 -71.37661 31183 ft 541 kts 51°
2026-05-05 10:02 32.35385 -71.30603 31188 ft 541 kts 51°
2026-05-05 10:02 32.39964 -71.23524 31194 ft 541 kts 51°
2026-05-05 10:03 32.44537 -71.16440 31187 ft 541 kts 51°
2026-05-05 10:03 32.49103 -71.09353 31196 ft 541 kts 51°
2026-05-05 10:04 32.53642 -71.02297 31192 ft 541 kts 51°
2026-05-05 10:04 32.58196 -70.95202 31190 ft 541 kts 52°
2026-05-05 10:05 32.62760 -70.88079 31195 ft 541 kts 52°
2026-05-05 10:05 32.67322 -70.80946 31198 ft 541 kts 52°
2026-05-05 10:06 32.71862 -70.73834 31195 ft 541 kts 52°
2026-05-05 10:06 32.76397 -70.66715 31196 ft 540 kts 52°
2026-05-05 10:07 32.80907 -70.59622 31195 ft 540 kts 52°
2026-05-05 10:07 32.85449 -70.52466 31195 ft 540 kts 52°
2026-05-05 10:08 32.89977 -70.45318 31199 ft 540 kts 52°
2026-05-05 10:08 32.94491 -70.38179 31198 ft 540 kts 52°
2026-05-05 10:09 32.99004 -70.31026 31201 ft 541 kts 52°
2026-05-05 10:09 33.03492 -70.23900 31204 ft 541 kts 52°
2026-05-05 10:10 33.08001 -70.16727 31206 ft 541 kts 52°
2026-05-05 10:10 33.12528 -70.09511 31206 ft 541 kts 52°
2026-05-05 10:11 33.17003 -70.02363 31210 ft 540 kts 52°
2026-05-05 10:11 33.21494 -69.95176 31209 ft 540 kts 52°
2026-05-05 10:12 33.25981 -69.87981 31211 ft 540 kts 52°
2026-05-05 10:12 33.30463 -69.80782 31212 ft 540 kts 52°
2026-05-05 10:13 33.34967 -69.73535 31210 ft 541 kts 52°
2026-05-05 10:13 33.39445 -69.66316 31219 ft 541 kts 52°
2026-05-05 10:14 33.43916 -69.59093 31219 ft 541 kts 52°
2026-05-05 10:14 33.48383 -69.51860 31217 ft 541 kts 52°
2026-05-05 10:15 33.52867 -69.44586 31220 ft 541 kts 52°
2026-05-05 10:15 33.57321 -69.37347 31223 ft 542 kts 52°
2026-05-05 10:16 33.61816 -69.30026 31222 ft 542 kts 52°
2026-05-05 10:16 33.66269 -69.22759 31219 ft 542 kts 52°
2026-05-05 10:17 33.70712 -69.15493 31223 ft 542 kts 52°
2026-05-05 10:17 33.75166 -69.08197 31225 ft 542 kts 52°
2026-05-05 10:18 33.79630 -69.00868 31231 ft 542 kts 52°
2026-05-05 10:18 33.84084 -68.93540 31220 ft 543 kts 52°
2026-05-05 10:19 33.88528 -68.86216 31224 ft 543 kts 52°
2026-05-05 10:19 33.92977 -68.78867 31233 ft 543 kts 53°
2026-05-05 10:20 33.96697 -68.72712 31229 ft 543 kts 53°
2026-05-05 10:20 34.01855 -68.64159 31232 ft 543 kts 53°
2026-05-05 10:21 34.06294 -68.56783 31229 ft 544 kts 53°
2026-05-05 10:21 34.09987 -68.50633 31237 ft 544 kts 53°
2026-05-05 10:22 34.14450 -68.43190 31240 ft 544 kts 53°
2026-05-05 10:22 34.18861 -68.35817 31229 ft 544 kts 53°
2026-05-05 10:23 34.23289 -68.28401 31227 ft 544 kts 53°
2026-05-05 10:23 34.27705 -68.20989 31250 ft 544 kts 53°
2026-05-05 10:24 34.32139 -68.13533 31249 ft 544 kts 53°
2026-05-05 10:24 34.36546 -68.06105 31239 ft 544 kts 53°
2026-05-05 10:25 34.40964 -67.98645 31240 ft 544 kts 53°
2026-05-05 10:25 34.45352 -67.91219 31240 ft 543 kts 53°
2026-05-05 10:26 34.49741 -67.83775 31238 ft 543 kts 53°
2026-05-05 10:26 34.54108 -67.76354 31242 ft 543 kts 53°
2026-05-05 10:27 34.58494 -67.68885 31245 ft 543 kts 53°
2026-05-05 10:27 34.62886 -67.61391 31247 ft 544 kts 53°
2026-05-05 10:28 34.67277 -67.53882 31245 ft 544 kts 53°
2026-05-05 10:28 34.71652 -67.46385 31248 ft 545 kts 53°
2026-05-05 10:29 34.76047 -67.38838 31250 ft 545 kts 53°
2026-05-05 10:29 34.80424 -67.31304 31253 ft 545 kts 53°
2026-05-05 10:30 34.84785 -67.23783 31253 ft 545 kts 53°
2026-05-05 10:30 34.89150 -67.16239 31251 ft 545 kts 53°
2026-05-05 10:31 34.93512 -67.08684 31253 ft 545 kts 53°
2026-05-05 10:31 34.97849 -67.01156 31255 ft 545 kts 53°
2026-05-05 10:32 35.02196 -66.93596 31257 ft 544 kts 53°
2026-05-05 10:32 35.06538 -66.86027 31259 ft 544 kts 53°
2026-05-05 10:33 35.10880 -66.78442 31258 ft 545 kts 54°
2026-05-05 10:33 35.15202 -66.70875 31254 ft 545 kts 54°
2026-05-05 10:34 35.19527 -66.63287 31259 ft 545 kts 54°
2026-05-05 10:34 35.23867 -66.55656 31260 ft 545 kts 54°
2026-05-05 10:35 35.28213 -66.47996 31262 ft 546 kts 54°
2026-05-05 10:35 35.32524 -66.40384 31263 ft 546 kts 54°
2026-05-05 10:36 35.36850 -66.32730 31266 ft 547 kts 54°
2026-05-05 10:36 35.41166 -66.25074 31263 ft 547 kts 54°
2026-05-05 10:37 35.45498 -66.17371 31265 ft 547 kts 54°
2026-05-05 10:37 35.49806 -66.09693 31265 ft 547 kts 54°
2026-05-05 10:38 35.54109 -66.02007 31268 ft 547 kts 54°
2026-05-05 10:38 35.58419 -65.94293 31268 ft 547 kts 54°
2026-05-05 10:39 35.62715 -65.86585 31265 ft 547 kts 54°
2026-05-05 10:39 35.67002 -65.78878 31266 ft 547 kts 54°
2026-05-05 10:40 35.71302 -65.71130 31266 ft 547 kts 54°
2026-05-05 10:40 35.75574 -65.63414 31269 ft 548 kts 54°
2026-05-05 10:41 35.79850 -65.55675 31268 ft 548 kts 54°
2026-05-05 10:41 35.84147 -65.47880 31272 ft 548 kts 54°
2026-05-05 10:42 35.90568 -65.36199 31269 ft 549 kts 54°
2026-05-05 10:43 35.94832 -65.28420 31267 ft 549 kts 54°
2026-05-05 10:43 35.99113 -65.20591 31271 ft 549 kts 54°
2026-05-05 10:44 36.03379 -65.12773 31268 ft 549 kts 54°
2026-05-05 10:44 36.07641 -65.04945 31272 ft 548 kts 54°
2026-05-05 10:45 36.11889 -64.97125 31267 ft 547 kts 54°
2026-05-05 10:45 36.16116 -64.89326 31272 ft 547 kts 54°
2026-05-05 10:46 36.20374 -64.81450 31277 ft 547 kts 54°
2026-05-05 10:46 36.24580 -64.73655 31279 ft 548 kts 54°
2026-05-05 10:47 36.28817 -64.65783 31276 ft 548 kts 54°
2026-05-05 10:47 36.33057 -64.57887 31276 ft 549 kts 54°
2026-05-05 10:48 36.37254 -64.50054 31279 ft 549 kts 54°
2026-05-05 10:48 36.41486 -64.42135 31267 ft 550 kts 54°
2026-05-05 10:49 36.45720 -64.34197 31276 ft 550 kts 55°
2026-05-05 10:49 36.49915 -64.26311 31277 ft 550 kts 55°
2026-05-05 10:50 36.54143 -64.18346 31280 ft 550 kts 55°
2026-05-05 10:50 36.58337 -64.10427 31279 ft 550 kts 55°
2026-05-05 10:51 36.62560 -64.02433 31270 ft 550 kts 55°
2026-05-05 10:51 36.66759 -63.94467 31272 ft 551 kts 55°
2026-05-05 10:52 36.70962 -63.86473 31292 ft 551 kts 55°
2026-05-05 10:52 36.75162 -63.78468 31291 ft 551 kts 55°
2026-05-05 10:53 36.79335 -63.70493 31280 ft 551 kts 55°
2026-05-05 10:53 36.83510 -63.62497 31273 ft 551 kts 55°
2026-05-05 10:54 36.87701 -63.54452 31282 ft 552 kts 55°
2026-05-05 10:54 36.91866 -63.46437 31288 ft 552 kts 55°
2026-05-05 10:55 36.96040 -63.38384 31288 ft 552 kts 55°
2026-05-05 10:55 37.00212 -63.30317 31283 ft 552 kts 55°
2026-05-05 10:56 37.04376 -63.22245 31286 ft 552 kts 55°
2026-05-05 10:56 37.08540 -63.14155 31287 ft 552 kts 55°
2026-05-05 10:57 37.12685 -63.06082 31288 ft 552 kts 55°
2026-05-05 10:57 37.16843 -62.97963 31293 ft 553 kts 56°
2026-05-05 10:58 37.20979 -62.89868 31289 ft 553 kts 56°
2026-05-05 10:58 37.25140 -62.81705 31291 ft 554 kts 56°
2026-05-05 10:59 37.29284 -62.73555 31291 ft 554 kts 56°
2026-05-05 10:59 37.33405 -62.65431 31292 ft 555 kts 56°
2026-05-05 11:00 37.37559 -62.57219 31292 ft 555 kts 56°
2026-05-05 11:00 37.41697 -62.49020 31292 ft 556 kts 56°
2026-05-05 11:01 37.45844 -62.40784 31288 ft 556 kts 56°
2026-05-05 11:01 37.49953 -62.32601 31284 ft 556 kts 56°
2026-05-05 11:02 37.54100 -62.24323 31295 ft 557 kts 56°
2026-05-05 11:02 37.58219 -62.16082 31298 ft 557 kts 56°
2026-05-05 11:03 37.62338 -62.07817 31293 ft 558 kts 56°
2026-05-05 11:03 37.66468 -61.99511 31300 ft 558 kts 56°
2026-05-05 11:04 37.70597 -61.91186 31293 ft 559 kts 56°
2026-05-05 11:04 37.74710 -61.82873 31292 ft 559 kts 56°
2026-05-05 11:05 37.78826 -61.74531 31295 ft 559 kts 56°
2026-05-05 11:05 37.82939 -61.66174 31295 ft 560 kts 56°
2026-05-05 11:06 37.86347 -61.59234 31296 ft 560 kts 56°
2026-05-05 11:06 37.90453 -61.50852 31298 ft 561 kts 57°
2026-05-05 11:07 37.94568 -61.42430 31297 ft 561 kts 57°
2026-05-05 11:07 37.98676 -61.34003 31299 ft 562 kts 57°
2026-05-05 11:08 38.02775 -61.25570 31302 ft 562 kts 57°
2026-05-05 11:08 38.06879 -61.17106 31298 ft 563 kts 57°
2026-05-05 11:09 38.10981 -61.08624 31298 ft 563 kts 57°
2026-05-05 11:09 38.15048 -61.00191 31298 ft 564 kts 57°
2026-05-05 11:10 38.19137 -60.91693 31297 ft 564 kts 57°
2026-05-05 11:10 38.23231 -60.83160 31303 ft 565 kts 57°
2026-05-05 11:11 38.27317 -60.74622 31292 ft 565 kts 57°
2026-05-05 11:11 38.31401 -60.66065 31299 ft 566 kts 57°
2026-05-05 11:12 38.35493 -60.57468 31304 ft 566 kts 57°
2026-05-05 11:12 38.39548 -60.48926 31298 ft 567 kts 57°
2026-05-05 11:13 38.43632 -60.40301 31304 ft 567 kts 58°
2026-05-05 11:13 38.47705 -60.31674 31299 ft 568 kts 58°
2026-05-05 11:14 38.51656 -60.22928 31300 ft 568 kts 61°
2026-05-05 11:14 38.55284 -60.13941 31309 ft 569 kts 63°
2026-05-05 11:15 38.58830 -60.04963 31307 ft 569 kts 63°
2026-05-05 11:15 38.62421 -59.95927 31305 ft 569 kts 63°
2026-05-05 11:16 38.66027 -59.86903 31307 ft 569 kts 63°
2026-05-05 11:16 38.69634 -59.77871 31307 ft 570 kts 63°
2026-05-05 11:17 38.73237 -59.68816 31307 ft 571 kts 63°
2026-05-05 11:17 38.76833 -59.59743 31310 ft 571 kts 63°
2026-05-05 11:18 38.80399 -59.50717 31309 ft 572 kts 63°
2026-05-05 11:18 38.83991 -59.41599 31309 ft 572 kts 63°
2026-05-05 11:19 38.87577 -59.32470 31307 ft 572 kts 63°
2026-05-05 11:19 38.91158 -59.23326 31309 ft 573 kts 63°
2026-05-05 11:20 38.94735 -59.14165 31307 ft 573 kts 63°
2026-05-05 11:20 38.98282 -59.05053 31306 ft 574 kts 63°
2026-05-05 11:21 39.01852 -58.95854 31307 ft 574 kts 64°
2026-05-05 11:21 39.05409 -58.86663 31306 ft 574 kts 64°
2026-05-05 11:22 39.08967 -58.77441 31308 ft 574 kts 64°
2026-05-05 11:22 39.12511 -58.68224 31308 ft 575 kts 64°
2026-05-05 11:23 39.16055 -58.58982 31308 ft 575 kts 64°
2026-05-05 11:23 39.19592 -58.49729 31307 ft 575 kts 64°
2026-05-05 11:24 39.23104 -58.40513 31306 ft 576 kts 64°
2026-05-05 11:24 39.26631 -58.31229 31319 ft 577 kts 64°
2026-05-05 11:24 39.28402 -58.26555 31519 ft 579 kts 64°
2026-05-05 11:25 39.30168 -58.21888 31867 ft 578 kts 65°
2026-05-05 11:25 39.31933 -58.17217 32201 ft 578 kts 65°
2026-05-05 11:25 39.33700 -58.12534 32480 ft 578 kts 65°
2026-05-05 11:25 39.35443 -58.07907 32733 ft 579 kts 65°
2026-05-05 11:26 39.37203 -58.03225 32991 ft 580 kts 65°
2026-05-05 11:26 39.38969 -57.98521 33221 ft 582 kts 65°
2026-05-05 11:26 39.40739 -57.93799 33283 ft 585 kts 65°
2026-05-05 11:27 39.44285 -57.84319 33293 ft 583 kts 65°
2026-05-05 11:27 39.47799 -57.74894 33291 ft 579 kts 66°
2026-05-05 11:28 39.51291 -57.65497 33304 ft 578 kts 66°
2026-05-05 11:28 39.54770 -57.56107 33302 ft 579 kts 66°
2026-05-05 11:29 39.58232 -57.46729 33304 ft 581 kts 66°
2026-05-05 11:29 39.61715 -57.37266 33308 ft 583 kts 66°
2026-05-05 11:30 39.65206 -57.27750 33307 ft 584 kts 66°
2026-05-05 11:30 39.68696 -57.18208 33304 ft 586 kts 66°
2026-05-05 11:31 39.72187 -57.08632 33303 ft 586 kts 66°
2026-05-05 11:31 39.75668 -56.99053 33306 ft 586 kts 66°
2026-05-05 11:32 39.79144 -56.89455 33305 ft 586 kts 66°
2026-05-05 11:32 39.82607 -56.79860 33304 ft 585 kts 66°
2026-05-05 11:33 39.86057 -56.70271 33303 ft 585 kts 67°
2026-05-05 11:33 39.89480 -56.60727 33302 ft 585 kts 67°
2026-05-05 11:34 39.92913 -56.51122 33302 ft 585 kts 67°
2026-05-05 11:34 39.96340 -56.41501 33306 ft 585 kts 67°
2026-05-05 11:35 39.99763 -56.31861 33308 ft 585 kts 67°
2026-05-05 11:35 40.03176 -56.22214 33309 ft 586 kts 67°
2026-05-05 11:36 40.06588 -56.12540 33309 ft 587 kts 67°
2026-05-05 11:36 40.09996 -56.02843 33310 ft 587 kts 68°
2026-05-05 11:37 40.13382 -55.93178 33308 ft 588 kts 68°
2026-05-05 11:37 40.16783 -55.83437 33308 ft 589 kts 68°
2026-05-05 11:38 40.20177 -55.73683 33311 ft 589 kts 68°
2026-05-05 11:38 40.23565 -55.63913 33308 ft 589 kts 68°
2026-05-05 11:39 40.26943 -55.54137 33311 ft 589 kts 68°
2026-05-05 11:39 40.30317 -55.44341 33310 ft 589 kts 68°
2026-05-05 11:40 40.33677 -55.34550 33307 ft 589 kts 68°
2026-05-05 11:40 40.37032 -55.24740 33311 ft 589 kts 68°
2026-05-05 11:41 40.40359 -55.14978 33313 ft 589 kts 68°
2026-05-05 11:41 40.43694 -55.05160 33312 ft 589 kts 68°
2026-05-05 11:42 40.47026 -54.95315 33314 ft 589 kts 69°
2026-05-05 11:42 40.50351 -54.85457 33315 ft 590 kts 69°
2026-05-05 11:43 40.53670 -54.75581 33311 ft 590 kts 69°
2026-05-05 11:43 40.56960 -54.65759 33316 ft 591 kts 69°
2026-05-05 11:44 40.60265 -54.55855 33318 ft 591 kts 69°
2026-05-05 11:44 40.63564 -54.45936 33316 ft 591 kts 69°
2026-05-05 11:45 40.66851 -54.36017 33314 ft 591 kts 69°
2026-05-05 11:45 40.70135 -54.26072 33315 ft 591 kts 69°
2026-05-05 11:46 40.73406 -54.16130 33319 ft 591 kts 69°
2026-05-05 11:46 40.76675 -54.06158 33319 ft 591 kts 69°
2026-05-05 11:47 40.79906 -53.96265 33314 ft 591 kts 70°
2026-05-05 11:47 40.83153 -53.86288 33319 ft 591 kts 70°
2026-05-05 11:48 40.88010 -53.71297 33316 ft 591 kts 70°
2026-05-05 11:48 40.91239 -53.61286 33317 ft 592 kts 70°
2026-05-05 11:49 40.94461 -53.51259 33316 ft 592 kts 70°
2026-05-05 11:49 40.97676 -53.41218 33317 ft 593 kts 70°
2026-05-05 11:50 41.00867 -53.31214 33318 ft 594 kts 70°
2026-05-05 11:50 41.04073 -53.21125 33314 ft 595 kts 70°
2026-05-05 11:51 41.07276 -53.11009 33331 ft 595 kts 71°
2026-05-05 11:51 41.10469 -53.00885 33321 ft 596 kts 71°
2026-05-05 11:52 41.13140 -52.92389 33319 ft 596 kts 71°
2026-05-05 11:52 41.16305 -52.82287 33317 ft 596 kts 71°
2026-05-05 11:53 41.19479 -52.72119 33336 ft 596 kts 71°
2026-05-05 11:53 41.22642 -52.61944 33321 ft 595 kts 71°
2026-05-05 11:54 41.25794 -52.51770 33319 ft 595 kts 71°
2026-05-05 11:54 41.28938 -52.41580 33335 ft 595 kts 71°
2026-05-05 11:55 41.32066 -52.31401 33330 ft 594 kts 71°
2026-05-05 11:55 41.35184 -52.21220 33320 ft 594 kts 71°
2026-05-05 11:56 41.38275 -52.11086 33343 ft 594 kts 71°
2026-05-05 11:56 41.41380 -52.00868 33323 ft 594 kts 71°
2026-05-05 11:57 41.44476 -51.90638 33325 ft 594 kts 71°
2026-05-05 11:57 41.47561 -51.80406 33348 ft 594 kts 71°
2026-05-05 11:58 41.50635 -51.70174 33342 ft 594 kts 71°
2026-05-05 11:58 41.53680 -51.59996 33330 ft 594 kts 71°
2026-05-05 11:59 41.56733 -51.49749 33334 ft 594 kts 71°
2026-05-05 11:59 41.59783 -51.39474 33332 ft 594 kts 71°
2026-05-05 12:00 41.62818 -51.29209 33328 ft 593 kts 71°
2026-05-05 12:00 41.65825 -51.18999 33347 ft 593 kts 71°
2026-05-05 12:01 41.68839 -51.08725 33329 ft 593 kts 71°
2026-05-05 12:01 41.71839 -50.98457 33346 ft 592 kts 71°
2026-05-05 12:02 41.74830 -50.88181 33339 ft 592 kts 71°
2026-05-05 12:02 41.77815 -50.77882 33348 ft 591 kts 71°
2026-05-05 12:03 41.80756 -50.67695 33345 ft 589 kts 71°
2026-05-05 12:03 41.83703 -50.57444 33329 ft 588 kts 71°
2026-05-05 12:04 41.86636 -50.47203 33344 ft 587 kts 71°
2026-05-05 12:04 41.89554 -50.36975 33346 ft 587 kts 71°
2026-05-05 12:05 41.92464 -50.26730 33343 ft 586 kts 71°
2026-05-05 12:05 41.95361 -50.16490 33341 ft 586 kts 71°
2026-05-05 12:06 41.98244 -50.06258 33348 ft 586 kts 71°
2026-05-05 12:06 42.01076 -49.96062 33347 ft 585 kts 73°
2026-05-05 12:07 42.03691 -49.85691 33351 ft 585 kts 75°
2026-05-05 12:07 42.06209 -49.75290 33346 ft 585 kts 75°
2026-05-05 12:08 42.08754 -49.64862 33348 ft 585 kts 74°
2026-05-05 12:08 42.11317 -49.54466 33349 ft 585 kts 74°
2026-05-05 12:09 42.13880 -49.44065 33343 ft 585 kts 74°
2026-05-05 12:09 42.16420 -49.33703 33345 ft 585 kts 74°
2026-05-05 12:10 42.18946 -49.23333 33348 ft 585 kts 74°
2026-05-05 12:10 42.21472 -49.12913 33345 ft 584 kts 74°
2026-05-05 12:11 42.23986 -49.02494 33344 ft 584 kts 74°
2026-05-05 12:11 42.26492 -48.92063 33347 ft 583 kts 74°
2026-05-05 12:12 42.28984 -48.81645 33349 ft 583 kts 74°
2026-05-05 12:12 42.31453 -48.71272 33348 ft 582 kts 74°
2026-05-05 12:13 42.33921 -48.60856 33346 ft 582 kts 74°
2026-05-05 12:13 42.36382 -48.50422 33351 ft 582 kts 74°
2026-05-05 12:14 42.38829 -48.40003 33347 ft 581 kts 74°
2026-05-05 12:14 42.41271 -48.29552 33349 ft 581 kts 74°
2026-05-05 12:15 42.43700 -48.19113 33352 ft 581 kts 75°
2026-05-05 12:15 42.46119 -48.08663 33350 ft 581 kts 75°
2026-05-05 12:16 42.48509 -47.98294 33355 ft 581 kts 75°
2026-05-05 12:16 42.50908 -47.87833 33352 ft 581 kts 75°
2026-05-05 12:17 42.53296 -47.77371 33349 ft 581 kts 75°
2026-05-05 12:17 42.55673 -47.66909 33347 ft 580 kts 75°
2026-05-05 12:18 42.58044 -47.56426 33347 ft 580 kts 75°
2026-05-05 12:18 42.60402 -47.45945 33347 ft 580 kts 75°
2026-05-05 12:19 42.62733 -47.35539 33349 ft 580 kts 75°
2026-05-05 12:19 42.65074 -47.25033 33340 ft 580 kts 75°
2026-05-05 12:20 42.67400 -47.14548 33353 ft 580 kts 75°
2026-05-05 12:20 42.69724 -47.04017 33351 ft 579 kts 75°
2026-05-05 12:21 42.72016 -46.93586 33352 ft 579 kts 75°
2026-05-05 12:21 42.74313 -46.83076 33353 ft 579 kts 75°
2026-05-05 12:22 42.76599 -46.72565 33351 ft 578 kts 75°
2026-05-05 12:22 42.78872 -46.62062 33351 ft 578 kts 75°
2026-05-05 12:23 42.81135 -46.51553 33351 ft 578 kts 75°
2026-05-05 12:23 42.83373 -46.41108 33346 ft 578 kts 75°
2026-05-05 12:24 42.85615 -46.30594 33355 ft 577 kts 76°
2026-05-05 12:24 42.87844 -46.20089 33352 ft 577 kts 76°
2026-05-05 12:25 42.90061 -46.09583 33352 ft 577 kts 76°
2026-05-05 12:25 42.92275 -45.99045 33347 ft 576 kts 76°
2026-05-05 12:26 42.94475 -45.88513 33352 ft 576 kts 76°
2026-05-05 12:26 42.96662 -45.77991 33339 ft 576 kts 76°
2026-05-05 12:27 42.98827 -45.67527 33352 ft 576 kts 76°
2026-05-05 12:27 43.00996 -45.56982 33351 ft 576 kts 76°
2026-05-05 12:28 43.03155 -45.46436 33352 ft 576 kts 76°
2026-05-05 12:28 43.05302 -45.35894 33352 ft 576 kts 76°
2026-05-05 12:29 43.07439 -45.25343 33353 ft 575 kts 76°
2026-05-05 12:29 43.09569 -45.14773 33352 ft 575 kts 76°
2026-05-05 12:30 43.11687 -45.04211 33351 ft 575 kts 77°
2026-05-05 12:30 43.13781 -44.93706 33352 ft 575 kts 77°
2026-05-05 12:31 43.15877 -44.83141 33351 ft 575 kts 77°
2026-05-05 12:31 43.17962 -44.72573 33349 ft 574 kts 77°
2026-05-05 12:32 43.20037 -44.61999 33348 ft 574 kts 77°
2026-05-05 12:32 43.22103 -44.51412 33351 ft 574 kts 77°
2026-05-05 12:33 43.24144 -44.40900 33348 ft 574 kts 77°
2026-05-05 12:33 43.26188 -44.30314 33347 ft 573 kts 77°
2026-05-05 12:34 43.28220 -44.19735 33349 ft 573 kts 77°
2026-05-05 12:34 43.30235 -44.09185 33348 ft 572 kts 77°
2026-05-05 12:35 43.32252 -43.98564 33347 ft 572 kts 77°
2026-05-05 12:35 43.34251 -43.87984 33348 ft 572 kts 77°
2026-05-05 12:36 43.36222 -43.77491 33347 ft 571 kts 77°
2026-05-05 12:36 43.38206 -43.66870 33347 ft 571 kts 77°
2026-05-05 12:37 43.40166 -43.56316 33344 ft 570 kts 77°
2026-05-05 12:37 43.42120 -43.45739 33345 ft 570 kts 77°
2026-05-05 12:38 43.44057 -43.35197 33343 ft 570 kts 77°
2026-05-05 12:38 43.45669 -43.26371 33344 ft 570 kts 77°
2026-05-05 12:39 43.47588 -43.15819 33344 ft 569 kts 78°
2026-05-05 12:39 43.49503 -43.05219 33343 ft 569 kts 78°
2026-05-05 12:40 43.51401 -42.94662 33357 ft 569 kts 78°
2026-05-05 12:40 43.53298 -42.84041 33337 ft 569 kts 78°
2026-05-05 12:41 43.55181 -42.73443 33336 ft 569 kts 78°
2026-05-05 12:41 43.57051 -42.62852 33340 ft 569 kts 78°
2026-05-05 12:42 43.58907 -42.52283 33342 ft 568 kts 78°
2026-05-05 12:42 43.60764 -42.41647 33346 ft 568 kts 78°
2026-05-05 12:43 43.62607 -42.31026 33328 ft 568 kts 78°
2026-05-05 12:43 43.64434 -42.20430 33337 ft 567 kts 78°
2026-05-05 12:44 43.66246 -42.09862 33333 ft 567 kts 78°
2026-05-05 12:44 43.68046 -41.99299 33333 ft 566 kts 78°
2026-05-05 12:45 43.69847 -41.88668 33328 ft 566 kts 78°
2026-05-05 12:45 43.71623 -41.78120 33329 ft 565 kts 78°
2026-05-05 12:46 43.73389 -41.67571 33332 ft 564 kts 78°
2026-05-05 12:46 43.75150 -41.56985 33325 ft 564 kts 78°
2026-05-05 12:47 43.76896 -41.46421 33327 ft 563 kts 78°
2026-05-05 12:47 43.78633 -41.35850 33316 ft 563 kts 79°
2026-05-05 12:48 43.80350 -41.25332 33321 ft 563 kts 79°
2026-05-05 12:48 43.82070 -41.14735 33320 ft 563 kts 79°
2026-05-05 12:49 43.83773 -41.04173 33319 ft 562 kts 79°
2026-05-05 12:49 43.85469 -40.93590 33318 ft 562 kts 79°
2026-05-05 12:50 43.87156 -40.82993 33318 ft 562 kts 79°
2026-05-05 12:50 43.88829 -40.72423 33313 ft 562 kts 79°
2026-05-05 12:51 43.90490 -40.61853 33316 ft 562 kts 79°
2026-05-05 12:51 43.92148 -40.51241 33311 ft 562 kts 79°
2026-05-05 12:52 43.93791 -40.40652 33302 ft 562 kts 79°
2026-05-05 12:52 43.95423 -40.30070 33303 ft 561 kts 79°
2026-05-05 12:53 43.97045 -40.19478 33297 ft 561 kts 79°
2026-05-05 12:53 43.98660 -40.08869 33301 ft 561 kts 79°
2026-05-05 12:54 44.01590 -39.93114 33312 ft 562 kts 71°
2026-05-05 12:55 44.04209 -39.82869 33289 ft 562 kts 70°
2026-05-05 12:55 44.06829 -39.72665 33293 ft 562 kts 70°
2026-05-05 12:56 44.09394 -39.62442 33288 ft 563 kts 71°
2026-05-05 12:56 44.11935 -39.52151 33294 ft 563 kts 71°
2026-05-05 12:57 44.14466 -39.41840 33289 ft 563 kts 71°
2026-05-05 12:57 44.16988 -39.31535 33287 ft 563 kts 71°
2026-05-05 12:58 44.19508 -39.21202 33267 ft 563 kts 71°
2026-05-05 12:58 44.22026 -39.10834 33283 ft 563 kts 71°
2026-05-05 12:59 44.24526 -39.00489 33265 ft 563 kts 71°
2026-05-05 12:59 44.27024 -38.90105 33280 ft 563 kts 71°
2026-05-05 13:00 44.30733 -38.74597 33278 ft 563 kts 71°
2026-05-05 13:01 44.35661 -38.53823 33268 ft 564 kts 71°
2026-05-05 13:01 44.38108 -38.43440 33253 ft 564 kts 71°
2026-05-05 13:02 44.40557 -38.32993 33274 ft 564 kts 71°
2026-05-05 13:02 44.42989 -38.22573 33286 ft 564 kts 71°
2026-05-05 13:03 44.45413 -38.12138 33262 ft 564 kts 71°
2026-05-05 13:03 44.47828 -38.01691 33269 ft 563 kts 71°
2026-05-05 13:04 44.50230 -37.91250 33287 ft 563 kts 71°
2026-05-05 13:04 44.52625 -37.80788 33276 ft 562 kts 71°
2026-05-05 13:05 44.54991 -37.70403 33283 ft 561 kts 71°
2026-05-05 13:05 44.57353 -37.59988 33286 ft 561 kts 71°
2026-05-05 13:06 44.59717 -37.49516 33286 ft 561 kts 71°
2026-05-05 13:06 44.62055 -37.39105 33290 ft 561 kts 71°
2026-05-05 13:07 44.64388 -37.28665 33291 ft 561 kts 71°
2026-05-05 13:07 44.66723 -37.18166 33298 ft 561 kts 71°
2026-05-05 13:08 44.69023 -37.07774 33300 ft 561 kts 71°
2026-05-05 13:08 44.71338 -36.97263 33303 ft 562 kts 71°
2026-05-05 13:09 44.73629 -36.86807 33305 ft 562 kts 71°
2026-05-05 13:09 44.75924 -36.76281 33309 ft 563 kts 71°
2026-05-05 13:10 44.78213 -36.65733 33311 ft 563 kts 71°
2026-05-05 13:10 44.80501 -36.55131 33316 ft 564 kts 71°
2026-05-05 13:11 44.82758 -36.44624 33313 ft 565 kts 71°
2026-05-05 13:11 44.85031 -36.33985 33319 ft 565 kts 71°
2026-05-05 13:12 44.87285 -36.23382 33328 ft 565 kts 70°
2026-05-05 13:12 44.89525 -36.12793 33322 ft 565 kts 70°
2026-05-05 13:13 44.91766 -36.02141 33328 ft 564 kts 70°
2026-05-05 13:13 44.93982 -35.91551 33327 ft 562 kts 70°
2026-05-05 13:14 44.96174 -35.81024 33330 ft 561 kts 71°
2026-05-05 13:14 44.98370 -35.70426 33332 ft 560 kts 71°
2026-05-05 13:15 45.00544 -35.59873 33327 ft 559 kts 71°
2026-05-05 13:15 45.02690 -35.49404 33337 ft 557 kts 71°
2026-05-05 13:16 45.04837 -35.38877 33345 ft 556 kts 71°
2026-05-05 13:16 45.06968 -35.28373 33345 ft 556 kts 71°
2026-05-05 13:17 45.09105 -35.17784 33341 ft 556 kts 71°
2026-05-05 13:17 45.11206 -35.07318 33346 ft 556 kts 71°
2026-05-05 13:18 45.13308 -34.96791 33352 ft 557 kts 71°
2026-05-05 13:18 45.15404 -34.86235 33355 ft 558 kts 71°
2026-05-05 13:19 45.17496 -34.75648 33351 ft 558 kts 71°
2026-05-05 13:19 45.19577 -34.65053 33355 ft 558 kts 71°
2026-05-05 13:20 45.21655 -34.54417 33363 ft 559 kts 71°
2026-05-05 13:20 45.23715 -34.43812 33359 ft 559 kts 71°
2026-05-05 13:21 45.25775 -34.33152 33355 ft 558 kts 71°
2026-05-05 13:21 45.27808 -34.22576 33368 ft 558 kts 71°
2026-05-05 13:22 45.29839 -34.11947 33372 ft 557 kts 70°
2026-05-05 13:22 45.31867 -34.01279 33365 ft 556 kts 70°
2026-05-05 13:23 45.33864 -33.90709 33368 ft 556 kts 70°
2026-05-05 13:23 45.35853 -33.80130 33365 ft 555 kts 70°
2026-05-05 13:24 45.37510 -33.71265 33382 ft 555 kts 70°
2026-05-05 13:24 45.39485 -33.60648 33382 ft 554 kts 70°
2026-05-05 13:25 45.41439 -33.50085 33375 ft 554 kts 70°
2026-05-05 13:25 45.43399 -33.39426 33379 ft 554 kts 70°
2026-05-05 13:26 45.45324 -33.28898 33385 ft 553 kts 70°
2026-05-05 13:26 45.47252 -33.18294 33387 ft 553 kts 70°
2026-05-05 13:27 45.49173 -33.07666 33386 ft 553 kts 70°
2026-05-05 13:27 45.51080 -32.97051 33390 ft 553 kts 70°
2026-05-05 13:28 45.52974 -32.86449 33389 ft 553 kts 70°
2026-05-05 13:28 45.54872 -32.75761 33391 ft 553 kts 70°
2026-05-05 13:29 45.56742 -32.65173 33397 ft 552 kts 70°
2026-05-05 13:29 45.58602 -32.54574 33394 ft 552 kts 70°
2026-05-05 13:30 45.60460 -32.43921 33401 ft 551 kts 70°
2026-05-05 13:30 45.62300 -32.33317 33399 ft 551 kts 70°
2026-05-05 13:31 45.64137 -32.22659 33403 ft 551 kts 70°
2026-05-05 13:31 45.65955 -32.12049 33402 ft 551 kts 70°
2026-05-05 13:32 45.67770 -32.01395 33405 ft 551 kts 70°
2026-05-05 13:32 45.69567 -31.90780 33404 ft 551 kts 70°
2026-05-05 13:33 45.71357 -31.80136 33409 ft 551 kts 70°
2026-05-05 13:33 45.73146 -31.69439 33405 ft 551 kts 70°
2026-05-05 13:34 45.74912 -31.58808 33412 ft 551 kts 70°
2026-05-05 13:34 45.76675 -31.48129 33406 ft 551 kts 70°
2026-05-05 13:35 45.78424 -31.37473 33407 ft 550 kts 70°
2026-05-05 13:35 45.80163 -31.26803 33410 ft 549 kts 70°
2026-05-05 13:36 45.81889 -31.16153 33413 ft 549 kts 70°
2026-05-05 13:36 45.83607 -31.05481 33409 ft 548 kts 70°
2026-05-05 13:37 45.85304 -30.94869 33414 ft 546 kts 70°
2026-05-05 13:37 45.86990 -30.84265 33418 ft 545 kts 70°
2026-05-05 13:38 45.88662 -30.73673 33418 ft 544 kts 70°
2026-05-05 13:38 45.90331 -30.63038 33415 ft 543 kts 71°
2026-05-05 13:39 45.91979 -30.52473 33415 ft 542 kts 71°
2026-05-05 13:39 45.93612 -30.41929 33418 ft 541 kts 71°
2026-05-05 13:40 45.95227 -30.31430 33416 ft 540 kts 71°
2026-05-05 13:40 45.96843 -30.20861 33419 ft 539 kts 71°
2026-05-05 13:41 45.98438 -30.10361 33419 ft 539 kts 71°
2026-05-05 13:41 46.00075 -29.99881 33421 ft 535 kts 68°
2026-05-05 13:42 46.02432 -29.89841 33426 ft 528 kts 63°
2026-05-05 13:42 46.05002 -29.79877 33419 ft 528 kts 63°
2026-05-05 13:43 46.07517 -29.70008 33424 ft 528 kts 63°
2026-05-05 13:43 46.10003 -29.60056 33425 ft 528 kts 64°
2026-05-05 13:44 46.12463 -29.50097 33423 ft 528 kts 64°
2026-05-05 13:44 46.14916 -29.40120 33425 ft 528 kts 64°
2026-05-05 13:45 46.17361 -29.30146 33420 ft 527 kts 64°
2026-05-05 13:45 46.19802 -29.20148 33418 ft 526 kts 65°
2026-05-05 13:46 46.22216 -29.10216 33423 ft 525 kts 65°
2026-05-05 13:46 46.24630 -29.00244 33429 ft 525 kts 65°
2026-05-05 13:47 46.27028 -28.90287 33422 ft 524 kts 65°
2026-05-05 13:47 46.29416 -28.80331 33424 ft 524 kts 65°
2026-05-05 13:48 46.31799 -28.70355 33419 ft 523 kts 65°
2026-05-05 13:48 46.34161 -28.60417 33424 ft 523 kts 65°
2026-05-05 13:49 46.36516 -28.50463 33423 ft 523 kts 66°
2026-05-05 13:49 46.38852 -28.40545 33426 ft 523 kts 66°
2026-05-05 13:50 46.41192 -28.30565 33428 ft 523 kts 66°
2026-05-05 13:50 46.43522 -28.20583 33429 ft 522 kts 66°
2026-05-05 13:51 46.45843 -28.10591 33432 ft 522 kts 66°
2026-05-05 13:51 46.48152 -28.00609 33430 ft 522 kts 66°
2026-05-05 13:52 46.50455 -27.90601 33427 ft 522 kts 66°
2026-05-05 13:52 46.52744 -27.80613 33431 ft 521 kts 66°
2026-05-05 13:53 46.55012 -27.70669 33431 ft 520 kts 66°
2026-05-05 13:53 46.57278 -27.60685 33428 ft 519 kts 67°
2026-05-05 13:54 46.59529 -27.50723 33422 ft 518 kts 67°
2026-05-05 13:54 46.61755 -27.40825 33426 ft 517 kts 67°
2026-05-05 13:55 46.63984 -27.30870 33432 ft 516 kts 67°
2026-05-05 13:55 46.66199 -27.20925 33421 ft 515 kts 67°
2026-05-05 13:56 46.68388 -27.11055 33419 ft 514 kts 67°
2026-05-05 13:56 46.70582 -27.01117 33419 ft 513 kts 67°
2026-05-05 13:57 46.72747 -26.91262 33419 ft 513 kts 67°
2026-05-05 13:57 46.74917 -26.81340 33421 ft 513 kts 68°
2026-05-05 13:58 46.77080 -26.71399 33423 ft 513 kts 68°
2026-05-05 13:58 46.79238 -26.61438 33417 ft 514 kts 68°
2026-05-05 13:59 46.82444 -26.46543 33420 ft 514 kts 68°
2026-05-05 14:00 46.85289 -26.33235 33415 ft 515 kts 68°
2026-05-05 14:00 46.87758 -26.21619 33424 ft 515 kts 68°
2026-05-05 14:01 46.89872 -26.11615 33411 ft 515 kts 68°
2026-05-05 14:01 46.91979 -26.01601 33412 ft 515 kts 68°
2026-05-05 14:02 46.94080 -25.91561 33416 ft 516 kts 68°
2026-05-05 14:02 46.96176 -25.81497 33415 ft 516 kts 68°
2026-05-05 14:03 46.98250 -25.71492 33412 ft 517 kts 68°
2026-05-05 14:03 47.00330 -25.61405 33410 ft 517 kts 68°
2026-05-05 14:04 47.02398 -25.51322 33405 ft 517 kts 68°
2026-05-05 14:04 47.04461 -25.41218 33404 ft 517 kts 68°
2026-05-05 14:05 47.06512 -25.31114 33406 ft 517 kts 68°
2026-05-05 14:05 47.08555 -25.21006 33402 ft 517 kts 68°
2026-05-05 14:06 47.10591 -25.10876 33402 ft 517 kts 67°
2026-05-05 14:06 47.12608 -25.00791 33404 ft 517 kts 67°
2026-05-05 14:07 47.14624 -24.90657 33403 ft 517 kts 67°
2026-05-05 14:07 47.16634 -24.80500 33398 ft 517 kts 67°
2026-05-05 14:08 47.18636 -24.70334 33398 ft 517 kts 67°
2026-05-05 14:08 47.20614 -24.60233 33396 ft 517 kts 67°
2026-05-05 14:09 47.22356 -24.51293 33398 ft 517 kts 67°
2026-05-05 14:09 47.24327 -24.41133 33385 ft 517 kts 67°
2026-05-05 14:10 47.26290 -24.30957 33388 ft 517 kts 67°
2026-05-05 14:10 47.27920 -24.22466 33396 ft 517 kts 67°
2026-05-05 14:11 47.29871 -24.12250 33391 ft 517 kts 67°
2026-05-05 14:11 47.31796 -24.02116 33393 ft 517 kts 67°
2026-05-05 14:12 47.33728 -23.91890 33395 ft 517 kts 67°
2026-05-05 14:12 47.35649 -23.81672 33388 ft 516 kts 67°
2026-05-05 14:13 47.37554 -23.71476 33392 ft 516 kts 67°
2026-05-05 14:13 47.39454 -23.61258 33391 ft 515 kts 67°
2026-05-05 14:14 47.41342 -23.51043 33392 ft 515 kts 67°
2026-05-05 14:14 47.43207 -23.40899 33392 ft 514 kts 67°
2026-05-05 14:15 47.45072 -23.30697 33392 ft 513 kts 67°
2026-05-05 14:15 47.46923 -23.20516 33387 ft 512 kts 67°
2026-05-05 14:16 47.48764 -23.10336 33381 ft 512 kts 67°
2026-05-05 14:16 47.50593 -23.00164 33383 ft 511 kts 67°
2026-05-05 14:17 47.52408 -22.90013 33383 ft 510 kts 67°
2026-05-05 14:17 47.54204 -22.79914 33384 ft 510 kts 67°
2026-05-05 14:18 47.56000 -22.69754 33382 ft 509 kts 67°
2026-05-05 14:18 47.57785 -22.59600 33380 ft 509 kts 67°
2026-05-05 14:19 47.59560 -22.49447 33373 ft 509 kts 68°
2026-05-05 14:19 47.61321 -22.39318 33375 ft 509 kts 68°
2026-05-05 14:20 47.63067 -22.29214 33374 ft 509 kts 68°
2026-05-05 14:20 47.64822 -22.19001 33375 ft 509 kts 68°
2026-05-05 14:21 47.66557 -22.08838 33373 ft 509 kts 68°
2026-05-05 14:21 47.68286 -21.98655 33373 ft 509 kts 68°
2026-05-05 14:22 47.70000 -21.88501 33368 ft 508 kts 69°
2026-05-05 14:22 47.71703 -21.78355 33371 ft 508 kts 69°
2026-05-05 14:23 47.73401 -21.68171 33370 ft 508 kts 69°
2026-05-05 14:23 47.75090 -21.57984 33367 ft 507 kts 70°
2026-05-05 14:24 47.76764 -21.47828 33367 ft 506 kts 70°
2026-05-05 14:24 47.78434 -21.37637 33367 ft 506 kts 70°
2026-05-05 14:25 47.80089 -21.27476 33367 ft 505 kts 71°
2026-05-05 14:25 47.81741 -21.17271 33365 ft 505 kts 71°
2026-05-05 14:26 47.83370 -21.07140 33354 ft 504 kts 72°
2026-05-05 14:26 47.84984 -20.97050 33352 ft 503 kts 72°
2026-05-05 14:27 47.86595 -20.86911 33358 ft 503 kts 72°
2026-05-05 14:27 47.88201 -20.76745 33358 ft 503 kts 73°
2026-05-05 14:28 47.89790 -20.66623 33357 ft 503 kts 73°
2026-05-05 14:28 47.91377 -20.56445 33359 ft 503 kts 73°
2026-05-05 14:29 47.92946 -20.46322 33356 ft 502 kts 74°
2026-05-05 14:29 47.94514 -20.36142 33353 ft 502 kts 74°
2026-05-05 14:30 47.96061 -20.26033 33355 ft 502 kts 74°
2026-05-05 14:30 47.97609 -20.15852 33349 ft 502 kts 75°
2026-05-05 14:31 47.99147 -20.05687 33350 ft 501 kts 75°
2026-05-05 14:31 48.00202 -19.95464 33342 ft 504 kts 85°
2026-05-05 14:32 48.00400 -19.84981 33353 ft 503 kts 87°
2026-05-05 14:32 48.00545 -19.74541 33343 ft 503 kts 87°
2026-05-05 14:33 48.00716 -19.64079 33336 ft 503 kts 87°
2026-05-05 14:33 48.00901 -19.53704 33335 ft 502 kts 87°
2026-05-05 14:34 48.01084 -19.43281 33337 ft 502 kts 88°
2026-05-05 14:34 48.01257 -19.32862 33334 ft 501 kts 88°
2026-05-05 14:35 48.01417 -19.22472 33332 ft 501 kts 88°
2026-05-05 14:35 48.01568 -19.12069 33329 ft 501 kts 88°
2026-05-05 14:36 48.01710 -19.01646 33330 ft 500 kts 88°
2026-05-05 14:36 48.01842 -18.91273 33324 ft 500 kts 88°
2026-05-05 14:37 48.01965 -18.80861 33324 ft 500 kts 88°
2026-05-05 14:37 48.02078 -18.70482 33324 ft 501 kts 89°
2026-05-05 14:38 48.02182 -18.60112 33319 ft 500 kts 89°
2026-05-05 14:38 48.02276 -18.49754 33317 ft 500 kts 89°
2026-05-05 14:39 48.02362 -18.39362 33314 ft 500 kts 89°
2026-05-05 14:39 48.02437 -18.29008 33310 ft 500 kts 89°
2026-05-05 14:40 48.02504 -18.18574 33311 ft 500 kts 89°
2026-05-05 14:40 48.02561 -18.08231 33311 ft 499 kts 89°
2026-05-05 14:41 48.02609 -17.97865 33308 ft 499 kts 89°
2026-05-05 14:41 48.02648 -17.87525 33304 ft 499 kts 89°
2026-05-05 14:42 48.02677 -17.77173 33306 ft 498 kts 89°
2026-05-05 14:42 48.02696 -17.66813 33301 ft 498 kts 89°
2026-05-05 14:43 48.02707 -17.56467 33293 ft 498 kts 89°
2026-05-05 14:43 48.02708 -17.46157 33293 ft 498 kts 89°
2026-05-05 14:44 48.02700 -17.35803 33291 ft 498 kts 89°
2026-05-05 14:44 48.02683 -17.25450 33289 ft 498 kts 89°
2026-05-05 14:45 48.02656 -17.15086 33284 ft 498 kts 89°
2026-05-05 14:45 48.02620 -17.04724 33283 ft 498 kts 89°
2026-05-05 14:46 48.02575 -16.94462 33281 ft 497 kts 89°
2026-05-05 14:46 48.02521 -16.84142 33282 ft 497 kts 89°
2026-05-05 14:47 48.02457 -16.73802 33276 ft 497 kts 89°
2026-05-05 14:47 48.02385 -16.63488 33273 ft 496 kts 90°
2026-05-05 14:48 48.02303 -16.53162 33276 ft 496 kts 90°
2026-05-05 14:48 48.02212 -16.42897 33271 ft 496 kts 90°
2026-05-05 14:49 48.02111 -16.32576 33267 ft 497 kts 90°
2026-05-05 14:49 48.02001 -16.22238 33262 ft 497 kts 90°
2026-05-05 14:50 48.01882 -16.11920 33260 ft 497 kts 90°
2026-05-05 14:50 48.01754 -16.01608 33261 ft 497 kts 90°
2026-05-05 14:51 48.01617 -15.91293 33256 ft 497 kts 90°
2026-05-05 14:51 48.01470 -15.80967 33253 ft 497 kts 90°
2026-05-05 14:52 48.01316 -15.70725 33249 ft 497 kts 90°
2026-05-05 14:52 48.01150 -15.60400 33247 ft 496 kts 90°
2026-05-05 14:53 48.00976 -15.50101 33244 ft 496 kts 90°
2026-05-05 14:53 48.00793 -15.39789 33241 ft 496 kts 90°
2026-05-05 14:54 48.00601 -15.29496 33242 ft 495 kts 90°
2026-05-05 14:54 48.00400 -15.19216 33237 ft 494 kts 90°
2026-05-05 14:55 48.00193 -15.08990 33234 ft 494 kts 90°
2026-05-05 14:55 48.00832 -14.98885 33239 ft 489 kts 75°
2026-05-05 14:56 48.02559 -14.90853 33229 ft 486 kts 64°
2026-05-05 14:56 48.05319 -14.81666 33219 ft 486 kts 63°
2026-05-05 14:57 48.08110 -14.72451 33216 ft 486 kts 63°
2026-05-05 14:57 48.10857 -14.63204 33215 ft 486 kts 64°
2026-05-05 14:58 48.13561 -14.53969 33233 ft 486 kts 64°
2026-05-05 14:58 48.16259 -14.44696 33213 ft 486 kts 64°
2026-05-05 14:59 48.18956 -14.35400 33217 ft 486 kts 64°
2026-05-05 14:59 48.21644 -14.26102 33209 ft 486 kts 64°
2026-05-05 15:00 48.23886 -14.18324 33209 ft 485 kts 64°
2026-05-05 15:00 48.26985 -14.07528 33207 ft 485 kts 64°
2026-05-05 15:01 48.29641 -13.98235 33200 ft 484 kts 64°
2026-05-05 15:01 48.32295 -13.88916 33203 ft 484 kts 64°
2026-05-05 15:02 48.34935 -13.79610 33200 ft 483 kts 64°
2026-05-05 15:02 48.37563 -13.70309 33205 ft 483 kts 64°
2026-05-05 15:03 48.40167 -13.61058 33197 ft 482 kts 64°
2026-05-05 15:03 48.42774 -13.51758 33194 ft 482 kts 64°
2026-05-05 15:04 48.45375 -13.42447 33191 ft 481 kts 65°
2026-05-05 15:04 48.47960 -13.33152 33187 ft 480 kts 65°
2026-05-05 15:05 48.51823 -13.19199 33184 ft 480 kts 65°
2026-05-05 15:06 48.54384 -13.09904 33188 ft 479 kts 65°
2026-05-05 15:06 48.56918 -13.00668 33180 ft 479 kts 65°
2026-05-05 15:07 48.59463 -12.91357 33178 ft 479 kts 65°
2026-05-05 15:07 48.61999 -12.82041 33175 ft 479 kts 65°
2026-05-05 15:08 48.64519 -12.72748 33171 ft 479 kts 65°
2026-05-05 15:08 48.67048 -12.63386 33172 ft 479 kts 65°
2026-05-05 15:09 48.69556 -12.54062 33170 ft 480 kts 65°
2026-05-05 15:09 48.72065 -12.44698 33165 ft 480 kts 65°
2026-05-05 15:10 48.74575 -12.35291 33165 ft 481 kts 65°
2026-05-05 15:10 48.77071 -12.25897 33162 ft 481 kts 65°
2026-05-05 15:11 48.79566 -12.16473 33163 ft 481 kts 66°
2026-05-05 15:11 48.82046 -12.07101 33156 ft 480 kts 64°
2026-05-05 15:11 48.83614 -12.02655 33149 ft 476 kts 53°
2026-05-05 15:12 48.85652 -11.98714 33165 ft 474 kts 45°
2026-05-05 15:12 48.90694 -11.92408 33165 ft 470 kts 32°
2026-05-05 15:13 48.96104 -11.86788 33152 ft 471 kts 33°
2026-05-05 15:13 49.01452 -11.80979 33151 ft 473 kts 36°
2026-05-05 15:14 49.05894 -11.73558 33157 ft 478 kts 54°
2026-05-05 15:14 49.08843 -11.64427 33155 ft 482 kts 65°
2026-05-05 15:15 49.11336 -11.54884 33146 ft 483 kts 66°
2026-05-05 15:15 49.13830 -11.45354 33142 ft 483 kts 66°
2026-05-05 15:16 49.16358 -11.35852 33141 ft 483 kts 65°
2026-05-05 15:16 49.18885 -11.26406 33142 ft 483 kts 65°
2026-05-05 15:17 49.21422 -11.16897 33140 ft 483 kts 66°
2026-05-05 15:17 49.23951 -11.07367 33133 ft 482 kts 66°
2026-05-05 15:18 49.26467 -10.97846 33132 ft 482 kts 66°
2026-05-05 15:18 49.28957 -10.88379 33132 ft 482 kts 66°
2026-05-05 15:19 49.31452 -10.78854 33129 ft 481 kts 66°
2026-05-05 15:19 49.33938 -10.69326 33130 ft 481 kts 66°
2026-05-05 15:20 49.36419 -10.59778 33124 ft 481 kts 66°
2026-05-05 15:20 49.38886 -10.50242 33124 ft 480 kts 66°
2026-05-05 15:21 49.41344 -10.40700 33124 ft 480 kts 66°
2026-05-05 15:21 49.43790 -10.31166 33124 ft 480 kts 66°
2026-05-05 15:22 49.46218 -10.21663 33119 ft 480 kts 66°
2026-05-05 15:22 49.48649 -10.12108 33118 ft 480 kts 66°
2026-05-05 15:23 49.51078 -10.02522 33114 ft 480 kts 67°
2026-05-05 15:23 49.53491 -9.92954 33115 ft 480 kts 67°
2026-05-05 15:24 49.55898 -9.83373 33112 ft 480 kts 67°
2026-05-05 15:24 49.58301 -9.73764 33109 ft 480 kts 67°
2026-05-05 15:25 49.60677 -9.64225 33112 ft 480 kts 67°
2026-05-05 15:25 49.63061 -9.54612 33106 ft 480 kts 67°
2026-05-05 15:26 49.65438 -9.44985 33101 ft 480 kts 68°
2026-05-05 15:26 49.67811 -9.35333 33099 ft 480 kts 68°
2026-05-05 15:27 49.70174 -9.25677 33106 ft 480 kts 68°
2026-05-05 15:27 49.72531 -9.16007 33085 ft 480 kts 68°
2026-05-05 15:28 49.74875 -9.06343 33089 ft 480 kts 68°
2026-05-05 15:28 49.77205 -8.96700 33099 ft 480 kts 68°
2026-05-05 15:29 49.79527 -8.87043 33102 ft 479 kts 68°
2026-05-05 15:29 49.81852 -8.77332 33104 ft 479 kts 68°
2026-05-05 15:30 49.84149 -8.67696 33089 ft 478 kts 68°
2026-05-05 15:30 49.86441 -8.58040 33086 ft 478 kts 68°
2026-05-05 15:31 49.88734 -8.48335 33099 ft 478 kts 68°
2026-05-05 15:31 49.91004 -8.38685 33087 ft 478 kts 68°
2026-05-05 15:32 49.93267 -8.29020 33091 ft 477 kts 69°
2026-05-05 15:32 49.95529 -8.19313 33084 ft 477 kts 69°
2026-05-05 15:33 49.97764 -8.09688 33081 ft 476 kts 69°
2026-05-05 15:33 49.99985 -7.99934 33080 ft 476 kts 71°
2026-05-05 15:34 50.01560 -7.90003 33085 ft 477 kts 76°
2026-05-05 15:34 50.02988 -7.79880 33075 ft 476 kts 76°
2026-05-05 15:35 50.04412 -7.69835 33075 ft 476 kts 76°
2026-05-05 15:35 50.05843 -7.59847 33074 ft 475 kts 75°
2026-05-05 15:36 50.07283 -7.49804 33070 ft 474 kts 76°
2026-05-05 15:36 50.08711 -7.39782 33072 ft 474 kts 76°
2026-05-05 15:37 50.10129 -7.29757 33070 ft 473 kts 76°
2026-05-05 15:37 50.11527 -7.19804 33064 ft 472 kts 76°
2026-05-05 15:38 50.12923 -7.09796 33064 ft 472 kts 76°
2026-05-05 15:38 50.14305 -6.99820 33064 ft 471 kts 76°
2026-05-05 15:39 50.15679 -6.89836 33065 ft 471 kts 76°
2026-05-05 15:39 50.17047 -6.79828 33057 ft 472 kts 76°
2026-05-05 15:40 50.18406 -6.69818 33058 ft 472 kts 76°
2026-05-05 15:40 50.19758 -6.59791 33053 ft 472 kts 76°
2026-05-05 15:41 50.21103 -6.49741 33053 ft 473 kts 76°
2026-05-05 15:41 50.22433 -6.39738 33048 ft 473 kts 77°
2026-05-05 15:42 50.23547 -6.31300 33047 ft 474 kts 77°
2026-05-05 15:42 50.25071 -6.19681 33051 ft 475 kts 77°
2026-05-05 15:43 50.26168 -6.11256 33041 ft 475 kts 77°
2026-05-05 15:43 50.27478 -6.01123 33039 ft 476 kts 77°
2026-05-05 15:44 50.28783 -5.90962 33032 ft 476 kts 77°
2026-05-05 15:44 50.30082 -5.80783 33024 ft 477 kts 77°
2026-05-05 15:45 50.31367 -5.70623 33029 ft 478 kts 78°
2026-05-05 15:45 50.32645 -5.60444 33026 ft 480 kts 78°
2026-05-05 15:46 50.33924 -5.50186 33028 ft 481 kts 78°
2026-05-05 15:46 50.35197 -5.39894 33019 ft 482 kts 78°
2026-05-05 15:47 50.36466 -5.29555 33023 ft 484 kts 79°
2026-05-05 15:47 50.37730 -5.19174 33027 ft 485 kts 79°
2026-05-05 15:48 50.38978 -5.08840 33025 ft 486 kts 79°
2026-05-05 15:48 50.40230 -4.98404 33024 ft 487 kts 79°
2026-05-05 15:49 50.41471 -4.87967 33024 ft 487 kts 79°
2026-05-05 15:49 50.42705 -4.77505 33011 ft 488 kts 79°
2026-05-05 15:50 50.43926 -4.67070 33012 ft 490 kts 80°
2026-05-05 15:50 50.45148 -4.56544 33002 ft 490 kts 80°
2026-05-05 15:51 50.46359 -4.46011 33001 ft 490 kts 80°
2026-05-05 15:51 50.47562 -4.35473 32991 ft 489 kts 80°
2026-05-05 15:52 50.48752 -4.24958 32979 ft 488 kts 81°
2026-05-05 15:52 50.49929 -4.14466 32981 ft 487 kts 81°
2026-05-05 15:53 50.51096 -4.03989 32975 ft 487 kts 81°
2026-05-05 15:53 50.52255 -3.93507 32969 ft 486 kts 81°
2026-05-05 15:54 50.53411 -3.83058 32971 ft 485 kts 81°
2026-05-05 15:54 50.54560 -3.72625 32974 ft 484 kts 81°
2026-05-05 15:55 50.55698 -3.62191 32974 ft 484 kts 81°
2026-05-05 15:55 50.56819 -3.51823 32971 ft 484 kts 81°
2026-05-05 15:56 50.57962 -3.41388 32965 ft 484 kts 81°
2026-05-05 15:56 50.59192 -3.30995 32720 ft 482 kts 80°
2026-05-05 15:56 50.59808 -3.25801 32282 ft 484 kts 81°
2026-05-05 15:57 50.60423 -3.20557 31787 ft 488 kts 81°
2026-05-05 15:57 50.61035 -3.15278 31314 ft 491 kts 81°
2026-05-05 15:57 50.61646 -3.09974 30847 ft 493 kts 81°
2026-05-05 15:57 50.62258 -3.04636 30383 ft 496 kts 81°
2026-05-05 15:58 50.62867 -2.99300 30044 ft 495 kts 81°
2026-05-05 15:58 50.63472 -2.93977 29794 ft 492 kts 81°
2026-05-05 15:58 50.64070 -2.88673 29591 ft 488 kts 81°
2026-05-05 15:58 50.64660 -2.83423 29364 ft 486 kts 81°
2026-05-05 15:59 50.65237 -2.78258 29095 ft 484 kts 81°
2026-05-05 15:59 50.65825 -2.72981 28824 ft 482 kts 81°
2026-05-05 15:59 50.66395 -2.67850 28572 ft 481 kts 81°
2026-05-05 15:59 50.66970 -2.62655 28163 ft 480 kts 81°
2026-05-05 16:00 50.67541 -2.57469 27530 ft 477 kts 81°
2026-05-05 16:00 50.68094 -2.52357 26970 ft 471 kts 83°
2026-05-05 16:00 50.68271 -2.47250 26640 ft 458 kts 94°
2026-05-05 16:00 50.68050 -2.42288 26330 ft 450 kts 96°
2026-05-05 16:01 50.67753 -2.37435 26043 ft 452 kts 97°
2026-05-05 16:01 50.67454 -2.32415 25740 ft 462 kts 96°
2026-05-05 16:01 50.67186 -2.27339 25433 ft 467 kts 95°
2026-05-05 16:01 50.66948 -2.22235 25120 ft 466 kts 95°
2026-05-05 16:02 50.66728 -2.17167 24806 ft 458 kts 94°
2026-05-05 16:02 50.66516 -2.12184 24503 ft 453 kts 94°
2026-05-05 16:02 50.66303 -2.07327 24212 ft 448 kts 94°
2026-05-05 16:02 50.66089 -2.02449 23922 ft 443 kts 93°
2026-05-05 16:03 50.66020 -1.97626 23627 ft 440 kts 89°
2026-05-05 16:03 50.66086 -1.92813 23298 ft 438 kts 88°
2026-05-05 16:03 50.66192 -1.88010 22973 ft 437 kts 88°
2026-05-05 16:03 50.66290 -1.83231 22669 ft 436 kts 88°
2026-05-05 16:04 50.66369 -1.78448 22374 ft 435 kts 88°
2026-05-05 16:04 50.66429 -1.73684 22086 ft 434 kts 89°
2026-05-05 16:04 50.66479 -1.68929 21782 ft 433 kts 89°
2026-05-05 16:04 50.66525 -1.64185 21484 ft 432 kts 89°
2026-05-05 16:05 50.66570 -1.59440 21203 ft 431 kts 89°
2026-05-05 16:05 50.66612 -1.54735 20908 ft 429 kts 89°
2026-05-05 16:05 50.66595 -1.50086 20452 ft 428 kts 91°
2026-05-05 16:05 50.66518 -1.45476 20015 ft 423 kts 91°
2026-05-05 16:06 50.66438 -1.40829 19574 ft 417 kts 91°
2026-05-05 16:06 50.66373 -1.36293 19151 ft 410 kts 90°
2026-05-05 16:06 50.66681 -1.31894 18705 ft 402 kts 72°
2026-05-05 16:06 50.67715 -1.27873 18329 ft 393 kts 66°
2026-05-05 16:07 50.68799 -1.23904 17898 ft 396 kts 66°
2026-05-05 16:07 50.69861 -1.19885 17455 ft 396 kts 67°
2026-05-05 16:07 50.70905 -1.15857 17040 ft 396 kts 68°
2026-05-05 16:07 50.71935 -1.11834 16675 ft 394 kts 68°
2026-05-05 16:08 50.72955 -1.07829 16265 ft 393 kts 68°
2026-05-05 16:08 50.73969 -1.03831 15955 ft 388 kts 68°
2026-05-05 16:08 50.74958 -0.99923 15564 ft 383 kts 68°
2026-05-05 16:08 50.75940 -0.96040 15128 ft 379 kts 68°
2026-05-05 16:09 50.76910 -0.92197 14708 ft 374 kts 68°
2026-05-05 16:09 50.77868 -0.88398 14313 ft 369 kts 68°
2026-05-05 16:09 50.78811 -0.84653 13940 ft 365 kts 68°
2026-05-05 16:09 50.79742 -0.80951 13535 ft 361 kts 68°
2026-05-05 16:10 50.80663 -0.77276 13142 ft 356 kts 68°
2026-05-05 16:10 50.81461 -0.73624 12823 ft 348 kts 75°
2026-05-05 16:10 50.81946 -0.70012 12581 ft 321 kts 79°
2026-05-05 16:10 50.82296 -0.66690 12224 ft 302 kts 80°
2026-05-05 16:11 50.82624 -0.63453 11833 ft 287 kts 80°
2026-05-05 16:11 50.83470 -0.55526 11079 ft 288 kts 79°
2026-05-05 16:12 50.83818 -0.52397 10787 ft 289 kts 79°
2026-05-05 16:12 50.84254 -0.46042 10193 ft 292 kts 85°
2026-05-05 16:13 50.84620 -0.36717 9253 ft 269 kts 86°
2026-05-05 16:13 50.84725 -0.33753 9007 ft 273 kts 85°
2026-05-05 16:13 50.84831 -0.30717 8740 ft 277 kts 85°
2026-05-05 16:14 50.85030 -0.24656 8130 ft 276 kts 86°
2026-05-05 16:14 50.85688 -0.19018 7939 ft 249 kts 53°
2026-05-05 16:15 50.88762 -0.16642 7951 ft 266 kts 356°
2026-05-05 16:15 50.92364 -0.18144 7937 ft 266 kts 341°
2026-05-05 16:16 50.95822 -0.20059 7912 ft 259 kts 341°
2026-05-05 16:16 50.99243 -0.21979 7413 ft 268 kts 341°
2026-05-05 16:17 51.02723 -0.24318 6426 ft 277 kts 321°
2026-05-05 16:17 51.03886 -0.26682 5890 ft 268 kts 294°
2026-05-05 16:18 51.04280 -0.32197 5008 ft 248 kts 271°
2026-05-05 16:18 51.04260 -0.34900 4555 ft 240 kts 271°
2026-05-05 16:18 51.04203 -0.40106 3805 ft 232 kts 271°
2026-05-05 16:19 51.04172 -0.42617 3585 ft 231 kts 271°
2026-05-05 16:19 51.04140 -0.45225 3263 ft 239 kts 271°
2026-05-05 16:19 51.04616 -0.50277 2993 ft 227 kts 308°
2026-05-05 16:20 51.07337 -0.52413 3008 ft 226 kts 350°
2026-05-05 16:20 51.10345 -0.52653 2985 ft 208 kts 25°
2026-05-05 16:21 51.11489 -0.49227 2995 ft 180 kts 94°
2026-05-05 16:22 51.11569 -0.43232 2982 ft 168 kts 81°
2026-05-05 16:22 51.11941 -0.39717 2671 ft 158 kts 76°
2026-05-05 16:23 51.12409 -0.36304 2248 ft 156 kts 76°
2026-05-05 16:23 51.12647 -0.34603 2020 ft 156 kts 75°
2026-05-05 16:23 51.13114 -0.31255 1617 ft 157 kts 76°
2026-05-05 16:24 51.13350 -0.29551 1385 ft 158 kts 76°
2026-05-05 16:24 51.13583 -0.27891 1170 ft 156 kts 76°
2026-05-05 16:24 51.14026 -0.24707 694 ft 142 kts 77°
2026-05-05 16:25 51.14237 -0.23178 583 ft 147 kts 77°
2026-05-05 16:25 51.14683 -0.19993 218 ft 133 kts 77°
2026-05-05 16:25 51.14810 -0.19080 219 ft 36 kts 78°
2026-05-05 16:26 51.14886 -0.18507 220 ft 37 kts 77°
2026-05-05 16:26 51.15077 -0.17782 220 ft 24 kts 25°
2026-05-05 16:27 51.15165 -0.17771 214 ft 13 kts 354°
2026-05-05 16:27 51.15212 -0.17780 212 ft 0 kts 353°
2026-05-05 16:29 51.15219 -0.17780 216 ft 3 kts
2026-05-05 16:29 51.15250 -0.17745 215 ft 8 kts 51°
2026-05-05 16:29 51.15275 -0.17635 217 ft 13 kts 76°
2026-05-05 16:30 51.15295 -0.17483 215 ft 12 kts 81°
2026-05-05 16:30 51.15323 -0.17381 219 ft 10 kts 31°
2026-05-05 16:30 51.15394 -0.17389 216 ft 10 kts 348°
2026-05-05 16:30 51.15451 -0.17408 214 ft 0 kts 348°
2026-05-05 16:31 51.15452 -0.17409 214 ft 0 kts 348°
2026-05-05 16:31 51.15456 -0.17410 212 ft 1 kts 348°
2026-05-05 16:31 51.15472 -0.17416 212 ft 4 kts 348°
2026-05-05 16:31 51.15499 -0.17425 214 ft 5 kts 348°
2026-05-05 16:32 51.15540 -0.17439 215 ft 8 kts 348°
2026-05-05 16:32 51.15601 -0.17460 212 ft 10 kts 346°
2026-05-05 16:32 51.15674 -0.17488 216 ft 12 kts 346°
2026-05-05 16:32 51.15735 -0.17496 218 ft 9 kts 12°
2026-05-05 16:33 51.15774 -0.17420 219 ft 10 kts 73°
2026-05-05 16:33 51.15790 -0.17306 213 ft 10 kts 76°
2026-05-05 16:33 51.15814 -0.17214 221 ft 9 kts 39°
2026-05-05 16:33 51.15843 -0.17210 218 ft 3 kts 349°
2026-05-05 16:34 51.15863 -0.17218 216 ft 3 kts 346°
2026-05-05 16:34 51.15874 -0.17223 219 ft 1 kts 347°
2026-05-05 16:34 51.15884 -0.17226 219 ft 2 kts 347°
2026-05-05 16:34 51.15893 -0.17230 216 ft 1 kts 347°
2026-05-05 16:35 51.15894 -0.17230 216 ft 0 kts 347°